COSMOS 2535 DEB, 44631

Orbit data source: Space-Track

COSMOS 2535 DEB, 44631 is space debris in SSO originally from a launch on Wed, 10 Jul 2019 UTC launched from the Plesetsk Missile And Space Complex (PKMTR). Debris objects in space refer to the collection of defunct objects orbiting the Earth. Examples of debris include non-operational satellites, rocket bodies, and fragments generated from explosions, collisions, or faulty payload assembly.

Loading next visibility...
Identifier
44631, 2019-039H
Orbit
SSO
Country
Flag of CISCIS
Related business
Manufacturer
Unknown
Mission
Spacecraft
Bus & Motor
Unknown
Mass
Unknown
Launch date (UTC)
2019-07-10 (7 years ago)
Launch vehicle
Unknown
Launch site
Plesetsk Missile And Space Complex (PKMTR)
Object type
Payload
Rocket body
Debris
Shape & HBR
Unknown shape, 0.1 m
Radar Cross Section
Small (<0.1 m²)

Expand to show TLE details & history
Last TLE update: 11 hours ago

TLE from 11 hours ago
0 COSMOS 2535 DEB
1 44631U 19039H   26118.59570528  .00007983  00000-0  44928-3 0  9996
2 44631  97.5239 158.5873 0018065 228.2774 131.6912 15.13375168357440
Epoch: 2026-04-28T14:17Z
TLE epoch observation values (Epoch: 2026-04-28T14:17:48.936Z)
Latitude
-0.00009°
Longitude
87.56466°
Altitude
537.304 km
Speed
7.589 km/s
True Right ascension
10h 34m 20s
True Declination
0° 00' 00"
Sunlit
Object was in full shadow at epoch
Visualization orbit readout
Latitude
Unknown
Longitude
Unknown
Altitude
Unknown
Speed
Unknown
Apparent Right ascension
Unknown
Apparent Declination
Unknown
Sunlit
N/A
Visualization observer readout
Local Sidereal Time
08:18:57
Azimuth
Unknown
Elevation
Unknown
Doppler factor
Unknown
Orbital elements
Apogee altitude
535.362 km
Perigee altitude
510.429 km
Semi-major axis
6,901.033 km
Eccentricity
0.00181
Inclination
97.5239°
RAAN
158.5873°
Arg. of periapsis
228.2774°
True anomaly
131.84555°
Mean anomaly
131.6912°
Eccentric anomaly
131.7684°
Mean motion
3.78593 °/min
Orbital period
95.09 mins
BSTAR
0.00044928
Loading maneuver chart data...
Computing Atmospheric mass density...

Documentation

Showing up to 5 results
|